Weather History for Morristown, NJ

Change the Weather History Date:

Monday, May 13, 2013

  Actual Average Record
Temperature  
Mean Temperature 48 °F -  
Max Temperature 55 °F 72 °F 91 °F (2004)
Min Temperature 42 °F 46 °F 26 °F (1938)
Degree Days  
Heating Degree Days 16    
Moisture  
Dew Point 30 °F    
Average Humidity 51    
Maximum Humidity 76    
Minimum Humidity 29    
Precipitation  
Precipitation 0.00 in - - ()
Sea Level Pressure  
Sea Level Pressure 30.01 in    
Wind  
Wind Speed 6 mph (West)    
Max Wind Speed 17 mph    
Max Gust Speed 26 mph    
Visibility 10 miles    
Events      
Averages and records for this station are not official NWS values.
T = Trace of Precipitation, MM = Missing Value Source: NWS Daily Summary

Daily Weather History Graph

Daily Weather History Graph

Search for Another Location

Airport:

Trip Planner

Search our weather history database for the weather conditions in past years. The results will help you decide how hot, cold, wet, or windy it might be!

Date:

Astronomy

May. 13, 2013 Rise Set
Actual Time 5:42 AM EDT 8:06 PM EDT
Civil Twilight 5:11 AM EDT 8:37 PM EDT
Nautical Twilight 4:32 AM EDT 9:16 PM EDT
Astronomical Twilight 3:50 AM EDT 9:58 PM EDT
Moon 8:25 AM EDT (5/13) 11:14 PM EDT (5/13)
Length of Visible Light 15h 26m
Length of Day
14h 24m
Waxing Crescent, 12% of the Moon is Illuminated
May 13
Waxing Crescent
May 18
First Quarter
May 25
Full
May 31
Last Quarter
Jun 8
New

Hourly Weather History & Observations

Time (EDT) Temp. Windchill Dew Point Humidity Pressure Visibility Wind Dir Wind Speed Gust Speed Precip Events Conditions
12:15 AM 50.0 °F - 26.6 °F 40% 29.95 in 10.0 mi West 5.8 mph - N/A   Clear
12:35 AM 50.0 °F - 28.4 °F 43% 29.96 in 10.0 mi West 8.1 mph - N/A   Clear
12:55 AM 50.0 °F - 28.4 °F 43% 29.96 in 10.0 mi West 4.6 mph - N/A   Clear
1:15 AM 48.2 °F - 28.4 °F 46% 29.97 in 10.0 mi West 4.6 mph - N/A   Clear
1:35 AM 48.2 °F - 28.4 °F 46% 29.97 in 10.0 mi West 4.6 mph - N/A   Clear
1:55 AM 46.4 °F 45.2 °F 28.4 °F 50% 29.97 in 10.0 mi West 3.5 mph - N/A   Clear
2:15 AM 46.4 °F 45.2 °F 30.2 °F 53% 29.96 in 10.0 mi SW 3.5 mph - N/A   Clear
2:35 AM 46.4 °F 43.5 °F 30.2 °F 53% 29.96 in 10.0 mi WSW 5.8 mph - N/A   Clear
2:55 AM 44.6 °F 43.1 °F 32.0 °F 61% 29.96 in 10.0 mi SW 3.5 mph - N/A   Clear
3:15 AM 44.6 °F 43.1 °F 32.0 °F 61% 29.97 in 10.0 mi SW 3.5 mph - N/A   Clear
3:35 AM 42.8 °F - 32.0 °F 66% 29.96 in 10.0 mi Calm Calm - N/A   Clear
3:55 AM 42.8 °F 40.1 °F 32.0 °F 66% 29.97 in 10.0 mi WSW 4.6 mph - N/A   Clear
4:15 AM 44.6 °F 41.4 °F 30.2 °F 57% 29.98 in 10.0 mi WSW 5.8 mph - N/A   Clear
4:35 AM 44.6 °F 42.2 °F 30.2 °F 57% 29.98 in 10.0 mi WSW 4.6 mph - N/A   Clear
4:55 AM 42.8 °F 41.1 °F 30.2 °F 61% 29.98 in 10.0 mi WSW 3.5 mph - N/A   Clear
5:15 AM 42.8 °F - 33.8 °F 70% 29.99 in 10.0 mi Calm Calm - N/A   Clear
5:35 AM 42.8 °F - 35.6 °F 76% 30.00 in 10.0 mi Calm Calm - N/A   Clear
5:55 AM 42.8 °F 41.1 °F 32.0 °F 66% 30.00 in 10.0 mi WSW 3.5 mph - N/A   Clear
6:15 AM 42.8 °F - 33.8 °F 70% 30.01 in 10.0 mi Calm Calm - N/A   Clear
6:35 AM 44.6 °F 43.1 °F 32.0 °F 61% 30.01 in 10.0 mi SW 3.5 mph - N/A   Clear
6:45 AM 44.6 °F 42.2 °F 30.2 °F 57% 30.01 in 10.0 mi WSW 4.6 mph - N/A   Partly Cloudy
7:45 AM 46.4 °F 41.9 °F 32.0 °F 57% 30.03 in 10.0 mi West 9.2 mph - N/A   Mostly Cloudy
8:45 AM 48.2 °F - 28.4 °F 46% 30.05 in 10.0 mi WNW 12.7 mph 20.7 mph N/A   Mostly Cloudy
9:45 AM 50.0 °F - 26.6 °F 40% 30.05 in 10.0 mi NNW 15.0 mph 20.7 mph N/A   Mostly Cloudy
10:45 AM 50.0 °F - 26.6 °F 40% 30.05 in 10.0 mi WNW 11.5 mph 20.7 mph N/A   Mostly Cloudy
11:45 AM 51.8 °F - 24.8 °F 35% 30.05 in 10.0 mi WNW 17.3 mph 23.0 mph N/A   Mostly Cloudy
12:45 PM 53.6 °F - 24.8 °F 33% 30.05 in 10.0 mi West 15.0 mph 21.9 mph N/A   Mostly Cloudy
1:45 PM 53.6 °F - 24.8 °F 33% 30.04 in 10.0 mi West 16.1 mph 26.5 mph N/A   Mostly Cloudy
2:45 PM 53.6 °F - 26.6 °F 35% 30.04 in 10.0 mi WNW 15.0 mph 23.0 mph N/A   Mostly Cloudy
4:45 PM 53.6 °F - 24.8 °F 33% 30.02 in 10.0 mi West 16.1 mph 24.2 mph N/A   Mostly Cloudy
5:45 PM 55.4 °F - 23.0 °F 29% 30.01 in 10.0 mi WNW 13.8 mph 19.6 mph N/A   Mostly Cloudy
6:45 PM 53.6 °F - 24.8 °F 33% 30.02 in 10.0 mi WNW 12.7 mph 20.7 mph N/A   Mostly Cloudy
7:45 PM 50.0 °F - 26.6 °F 40% 30.05 in 10.0 mi NNW 5.8 mph 15.0 mph N/A   Scattered Clouds
8:45 PM 46.4 °F 44.3 °F 30.2 °F 53% 30.01 in 10.0 mi NNW 4.6 mph - N/A   Clear
9:45 PM 46.4 °F 43.5 °F 30.2 °F 53% 30.11 in 10.0 mi NNW 5.8 mph - N/A   Clear
10:55 PM 46.4 °F 44.3 °F 32.0 °F 57% 30.11 in 10.0 mi NW 4.6 mph - N/A   Clear
11:15 PM 46.4 °F 44.3 °F 32.0 °F 57% 30.11 in 10.0 mi NW 4.6 mph - N/A   Clear
11:35 PM 46.4 °F 45.2 °F 33.8 °F 62% 30.12 in 10.0 mi WNW 3.5 mph - N/A   Clear
11:55 PM 44.6 °F - 33.8 °F 66% 30.12 in 10.0 mi Calm Calm - N/A   Clear